Time,TemperatureF,DewpointF,PressureIn,WindDirection,WindDirectionDegrees,WindSpeedMPH,WindSpeedGustMPH,Humidity,HourlyPrecipIn,Conditions,Clouds,dailyrainin,SolarRadiationWatts/m^2,SoftwareType,DateUTC
2013-01-29 00:06:00,48.2,48.0,29.93,SSE,156,5.0,-999.0,98,-99.99,,,0.00,0,weatherlink.com 1.10,2013-01-29 05:06:00,
2013-01-29 00:20:00,48.5,48.0,29.93,SSE,168,5.0,-999.0,98,-99.99,,,0.00,0,weatherlink.com 1.10,2013-01-29 05:20:00,
2013-01-29 00:36:00,48.0,48.0,29.92,SE,146,4.0,-999.0,98,-99.99,,,0.00,0,weatherlink.com 1.10,2013-01-29 05:36:00,
2013-01-29 00:54:00,48.2,48.0,29.92,South,171,4.0,-999.0,98,-99.99,,,0.00,0,weatherlink.com 1.10,2013-01-29 05:54:00,
2013-01-29 01:05:00,47.7,47.0,29.91,SSE,164,5.0,-999.0,98,-99.99,,,0.00,0,weatherlink.com 1.10,2013-01-29 06:05:00,
2013-01-29 01:21:00,47.9,47.0,29.91,SSE,158,6.0,-999.0,98,-99.99,,,0.00,0,weatherlink.com 1.10,2013-01-29 06:21:00,
2013-01-29 01:36:00,48.3,48.0,29.90,SSE,161,7.0,-999.0,98,-99.99,,,0.00,0,weatherlink.com 1.10,2013-01-29 06:36:00,
2013-01-29 01:51:00,49.1,49.0,29.90,SSE,168,8.0,-999.0,98,-99.99,,,0.00,0,weatherlink.com 1.10,2013-01-29 06:51:00,
2013-01-29 02:05:00,49.4,49.0,29.89,SSE,168,8.0,-999.0,98,-99.99,,,0.00,0,weatherlink.com 1.10,2013-01-29 07:05:00,
2013-01-29 02:20:00,50.2,50.0,29.89,South,173,10.0,-999.0,98,-99.99,,,0.00,0,weatherlink.com 1.10,2013-01-29 07:20:00,
2013-01-29 02:35:00,50.8,50.0,29.89,South,185,13.0,-999.0,98,-99.99,,,0.01,0,weatherlink.com 1.10,2013-01-29 07:35:00,
2013-01-29 02:50:00,51.2,51.0,29.88,South,185,14.0,-999.0,98,-99.99,,,0.01,0,weatherlink.com 1.10,2013-01-29 07:50:00,
2013-01-29 03:05:00,51.2,51.0,29.87,South,177,14.0,-999.0,98,-99.99,,,0.01,0,weatherlink.com 1.10,2013-01-29 08:05:00,
2013-01-29 03:20:00,51.5,51.0,29.86,South,179,14.0,-999.0,98,-99.99,,,0.01,0,weatherlink.com 1.10,2013-01-29 08:20:00,
2013-01-29 03:35:00,51.8,51.0,29.85,South,177,13.0,-999.0,98,-99.99,,,0.01,0,weatherlink.com 1.10,2013-01-29 08:35:00,
2013-01-29 03:50:00,51.9,51.0,29.85,South,177,12.0,-999.0,98,-99.99,,,0.01,0,weatherlink.com 1.10,2013-01-29 08:50:00,
2013-01-29 04:05:00,52.0,52.0,29.85,South,174,13.0,-999.0,98,-99.99,,,0.01,0,weatherlink.com 1.10,2013-01-29 09:05:00,
2013-01-29 04:21:00,52.1,52.0,29.84,South,190,14.0,-999.0,98,-99.99,,,0.01,0,weatherlink.com 1.10,2013-01-29 09:21:00,
2013-01-29 04:35:00,52.1,52.0,29.84,South,182,17.0,-999.0,98,-99.99,,,0.01,0,weatherlink.com 1.10,2013-01-29 09:35:00,
2013-01-29 04:50:00,52.4,52.0,29.82,SSE,168,16.0,-999.0,98,-99.99,,,0.01,0,weatherlink.com 1.10,2013-01-29 09:50:00,
2013-01-29 05:05:00,52.4,52.0,29.82,South,170,11.0,-999.0,98,-99.99,,,0.01,0,weatherlink.com 1.10,2013-01-29 10:05:00,
2013-01-29 05:20:00,52.8,52.0,29.81,South,170,18.0,-999.0,98,-99.99,,,0.01,0,weatherlink.com 1.10,2013-01-29 10:20:00,
2013-01-29 05:35:00,52.6,52.0,29.81,South,184,14.0,-999.0,97,-99.99,,,0.01,0,weatherlink.com 1.10,2013-01-29 10:35:00,
2013-01-29 05:50:00,52.4,52.0,29.82,South,188,18.0,-999.0,97,-99.99,,,0.01,0,weatherlink.com 1.10,2013-01-29 10:50:00,
2013-01-29 06:05:00,52.1,51.0,29.81,South,186,15.0,-999.0,97,-99.99,,,0.01,0,weatherlink.com 1.10,2013-01-29 11:05:00,
2013-01-29 06:20:00,52.3,52.0,29.81,South,189,13.0,-999.0,97,-99.99,,,0.01,0,weatherlink.com 1.10,2013-01-29 11:20:00,
2013-01-29 06:36:00,53.1,52.0,29.80,South,183,16.0,-999.0,97,-99.99,,,0.01,0,weatherlink.com 1.10,2013-01-29 11:36:00,
2013-01-29 06:50:00,53.3,52.0,29.80,South,187,18.0,-999.0,96,-99.99,,,0.01,0,weatherlink.com 1.10,2013-01-29 11:50:00,
2013-01-29 07:05:00,53.9,53.0,29.80,SSW,194,19.0,-999.0,96,-99.99,,,0.01,0,weatherlink.com 1.10,2013-01-29 12:05:00,
2013-01-29 07:20:00,54.2,53.0,29.80,SSW,197,15.0,-999.0,96,-99.99,,,0.01,0,weatherlink.com 1.10,2013-01-29 12:20:00,
2013-01-29 07:36:00,54.6,54.0,29.80,South,189,20.0,-999.0,96,-99.99,,,0.01,0,weatherlink.com 1.10,2013-01-29 12:36:00,
2013-01-29 07:51:00,54.8,54.0,29.80,SSW,194,19.0,-999.0,96,-99.99,,,0.01,0,weatherlink.com 1.10,2013-01-29 12:51:00,
2013-01-29 08:05:00,54.9,54.0,29.80,South,176,17.0,-999.0,96,-99.99,,,0.01,0,weatherlink.com 1.10,2013-01-29 13:05:00,
2013-01-29 08:20:00,55.0,54.0,29.79,SSW,200,21.0,-999.0,96,-99.99,,,0.01,7,weatherlink.com 1.10,2013-01-29 13:20:00,
2013-01-29 08:36:00,55.3,54.0,29.79,South,191,16.0,-999.0,96,-99.99,,,0.01,12,weatherlink.com 1.10,2013-01-29 13:36:00,
2013-01-29 08:50:00,55.5,54.0,29.78,SSW,200,17.0,-999.0,96,-99.99,,,0.01,11,weatherlink.com 1.10,2013-01-29 13:50:00,
2013-01-29 09:05:00,55.8,54.0,29.79,South,190,18.0,-999.0,95,-99.99,,,0.01,7,weatherlink.com 1.10,2013-01-29 14:05:00,
2013-01-29 09:20:00,56.0,55.0,29.78,SSW,193,27.0,-999.0,95,-99.99,,,0.01,14,weatherlink.com 1.10,2013-01-29 14:20:00,
2013-01-29 09:35:00,56.3,55.0,29.78,SSW,193,20.0,-999.0,95,-99.99,,,0.01,23,weatherlink.com 1.10,2013-01-29 14:35:00,
2013-01-29 09:51:00,56.6,55.0,29.79,South,188,18.0,-999.0,94,-99.99,,,0.01,19,weatherlink.com 1.10,2013-01-29 14:51:00,
2013-01-29 10:06:00,56.4,55.0,29.78,SSW,193,17.0,-999.0,94,-99.99,,,0.01,26,weatherlink.com 1.10,2013-01-29 15:06:00,
2013-01-29 10:21:00,56.8,55.0,29.79,SSW,201,17.0,-999.0,94,-99.99,,,0.01,25,weatherlink.com 1.10,2013-01-29 15:21:00,
2013-01-29 10:35:00,57.0,55.0,29.78,SW,214,22.0,-999.0,94,-99.99,,,0.01,28,weatherlink.com 1.10,2013-01-29 15:35:00,
2013-01-29 10:50:00,57.1,55.0,29.79,SSW,197,12.0,-999.0,93,-99.99,,,0.01,26,weatherlink.com 1.10,2013-01-29 15:50:00,
2013-01-29 11:05:00,57.3,55.0,29.78,SSW,194,19.0,-999.0,93,-99.99,,,0.01,32,weatherlink.com 1.10,2013-01-29 16:05:00,
2013-01-29 11:20:00,57.4,55.0,29.77,SSW,199,19.0,-999.0,93,-99.99,,,0.01,32,weatherlink.com 1.10,2013-01-29 16:20:00,
2013-01-29 11:35:00,57.7,56.0,29.77,South,189,18.0,-999.0,93,-99.99,,,0.01,30,weatherlink.com 1.10,2013-01-29 16:35:00,
2013-01-29 11:50:00,57.8,56.0,29.76,SSW,196,17.0,-999.0,93,-99.99,,,0.01,30,weatherlink.com 1.10,2013-01-29 16:50:00,
2013-01-29 12:05:00,58.2,56.0,29.76,South,185,18.0,-999.0,92,-99.99,,,0.01,33,weatherlink.com 1.10,2013-01-29 17:05:00,
2013-01-29 12:21:00,58.2,56.0,29.75,SSW,206,14.0,-999.0,92,-99.99,,,0.01,37,weatherlink.com 1.10,2013-01-29 17:21:00,
2013-01-29 12:35:00,58.6,56.0,29.75,SSW,193,19.0,-999.0,91,-99.99,,,0.01,28,weatherlink.com 1.10,2013-01-29 17:35:00,
2013-01-29 12:50:00,58.3,56.0,29.74,SSW,203,14.0,-999.0,92,-99.99,,,0.01,30,weatherlink.com 1.10,2013-01-29 17:50:00,
2013-01-29 13:05:00,58.1,56.0,29.73,SSW,192,19.0,-999.0,92,-99.99,,,0.01,28,weatherlink.com 1.10,2013-01-29 18:05:00,
2013-01-29 13:20:00,57.9,56.0,29.72,South,184,19.0,-999.0,93,-99.99,,,0.01,14,weatherlink.com 1.10,2013-01-29 18:20:00,
2013-01-29 13:35:00,57.9,56.0,29.71,South,187,19.0,-999.0,92,-99.99,,,0.01,23,weatherlink.com 1.10,2013-01-29 18:35:00,
2013-01-29 13:50:00,57.6,56.0,29.70,South,190,13.0,-999.0,93,-99.99,,,0.03,53,weatherlink.com 1.10,2013-01-29 18:50:00,
2013-01-29 14:05:00,58.1,56.0,29.69,South,183,16.0,-999.0,92,-99.99,,,0.03,23,weatherlink.com 1.10,2013-01-29 19:05:00,
2013-01-29 14:20:00,58.0,56.0,29.68,South,179,17.0,-999.0,93,-99.99,,,0.07,51,weatherlink.com 1.10,2013-01-29 19:20:00,
2013-01-29 14:35:00,58.6,56.0,29.68,SSW,206,17.0,-999.0,91,-99.99,,,0.07,7,weatherlink.com 1.10,2013-01-29 19:35:00,
2013-01-29 14:51:00,59.0,56.0,29.67,SSW,200,18.0,-999.0,91,-99.99,,,0.07,49,weatherlink.com 1.10,2013-01-29 19:51:00,
2013-01-29 15:05:00,59.0,56.0,29.67,SSW,206,21.0,-999.0,90,-99.99,,,0.07,11,weatherlink.com 1.10,2013-01-29 20:05:00,
2013-01-29 15:20:00,58.8,56.0,29.67,South,180,24.0,-999.0,90,-99.99,,,0.07,7,weatherlink.com 1.10,2013-01-29 20:20:00,
2013-01-29 15:35:00,58.1,56.0,29.66,South,178,15.0,-999.0,93,-99.99,,,0.14,16,weatherlink.com 1.10,2013-01-29 20:35:00,
2013-01-29 15:50:00,57.7,56.0,29.67,SSW,204,12.0,-999.0,94,-99.99,,,0.21,7,weatherlink.com 1.10,2013-01-29 20:50:00,
2013-01-29 16:05:00,57.7,56.0,29.66,SSE,168,11.0,-999.0,93,-99.99,,,0.22,5,weatherlink.com 1.10,2013-01-29 21:05:00,
2013-01-29 16:20:00,56.8,55.0,29.65,SSE,163,9.0,-999.0,94,-99.99,,,0.23,12,weatherlink.com 1.10,2013-01-29 21:20:00,
2013-01-29 16:36:00,56.4,55.0,29.65,SSE,156,15.0,-999.0,95,-99.99,,,0.24,0,weatherlink.com 1.10,2013-01-29 21:36:00,
2013-01-29 16:50:00,56.3,55.0,29.64,SSE,162,13.0,-999.0,95,-99.99,,,0.37,0,weatherlink.com 1.10,2013-01-29 21:50:00,
2013-01-29 17:06:00,56.3,55.0,29.66,South,179,10.0,-999.0,95,-99.99,,,0.39,0,weatherlink.com 1.10,2013-01-29 22:06:00,
2013-01-29 17:20:00,56.5,55.0,29.64,South,177,12.0,-999.0,95,-99.99,,,0.43,7,weatherlink.com 1.10,2013-01-29 22:20:00,
2013-01-29 17:36:00,56.5,55.0,29.64,SSE,163,10.0,-999.0,94,-99.99,,,0.43,0,weatherlink.com 1.10,2013-01-29 22:36:00,
2013-01-29 17:50:00,56.6,55.0,29.62,SSE,162,8.0,-999.0,94,-99.99,,,0.43,0,weatherlink.com 1.10,2013-01-29 22:50:00,
2013-01-29 18:05:00,56.9,55.0,29.62,South,178,13.0,-999.0,93,-99.99,,,0.43,0,weatherlink.com 1.10,2013-01-29 23:05:00,
2013-01-29 18:20:00,56.9,55.0,29.62,South,177,15.0,-999.0,93,-99.99,,,0.43,0,weatherlink.com 1.10,2013-01-29 23:20:00,
2013-01-29 18:36:00,57.3,55.0,29.61,South,190,17.0,-999.0,92,-99.99,,,0.43,0,weatherlink.com 1.10,2013-01-29 23:36:00,
2013-01-29 18:51:00,57.1,55.0,29.60,South,171,19.0,-999.0,91,-99.99,,,0.43,0,weatherlink.com 1.10,2013-01-29 23:51:00,
2013-01-29 19:20:00,56.9,55.0,29.58,South,177,18.0,-999.0,92,-99.99,,,0.43,0,weatherlink.com 1.10,2013-01-30 00:20:00,
2013-01-29 19:35:00,57.1,55.0,29.57,South,171,20.0,-999.0,92,-99.99,,,0.43,0,weatherlink.com 1.10,2013-01-30 00:35:00,
2013-01-29 19:50:00,56.9,55.0,29.55,SSE,158,16.0,-999.0,92,-99.99,,,0.43,0,weatherlink.com 1.10,2013-01-30 00:50:00,
2013-01-29 20:05:00,57.3,55.0,29.54,SSE,163,17.0,-999.0,91,-99.99,,,0.43,0,weatherlink.com 1.10,2013-01-30 01:05:00,
2013-01-29 20:20:00,57.6,55.0,29.53,SSE,164,16.0,-999.0,91,-99.99,,,0.43,0,weatherlink.com 1.10,2013-01-30 01:20:00,
2013-01-29 20:35:00,57.7,55.0,29.53,South,177,14.0,-999.0,91,-99.99,,,0.43,0,weatherlink.com 1.10,2013-01-30 01:35:00,
2013-01-29 20:50:00,57.9,55.0,29.52,South,181,19.0,-999.0,91,-99.99,,,0.43,0,weatherlink.com 1.10,2013-01-30 01:50:00,
2013-01-29 21:05:00,58.2,56.0,29.50,South,187,22.0,-999.0,91,-99.99,,,0.43,0,weatherlink.com 1.10,2013-01-30 02:05:00,
2013-01-29 21:20:00,58.4,56.0,29.49,South,176,21.0,-999.0,91,-99.99,,,0.43,0,weatherlink.com 1.10,2013-01-30 02:20:00,
2013-01-29 21:35:00,58.4,56.0,29.48,SSE,162,17.0,-999.0,91,-99.99,,,0.43,0,weatherlink.com 1.10,2013-01-30 02:35:00,
2013-01-29 21:50:00,58.5,56.0,29.46,South,172,19.0,-999.0,91,-99.99,,,0.43,0,weatherlink.com 1.10,2013-01-30 02:50:00,
2013-01-29 22:05:00,58.6,56.0,29.44,South,170,17.0,-999.0,91,-99.99,,,0.43,0,weatherlink.com 1.10,2013-01-30 03:05:00,
2013-01-29 22:21:00,58.9,56.0,29.43,South,172,24.0,-999.0,91,-99.99,,,0.43,0,weatherlink.com 1.10,2013-01-30 03:21:00,
2013-01-29 22:35:00,58.9,57.0,29.41,South,183,30.0,-999.0,92,-99.99,,,0.43,0,weatherlink.com 1.10,2013-01-30 03:35:00,
2013-01-29 22:50:00,59.3,57.0,29.40,SSE,167,20.0,-999.0,91,-99.99,,,0.43,0,weatherlink.com 1.10,2013-01-30 03:50:00,
2013-01-29 23:05:00,59.8,57.0,29.38,SSE,162,19.0,-999.0,90,-99.99,,,0.44,0,weatherlink.com 1.10,2013-01-30 04:05:00,
2013-01-29 23:20:00,60.0,57.0,29.37,South,170,23.0,-999.0,89,-99.99,,,0.44,0,weatherlink.com 1.10,2013-01-30 04:20:00,
2013-01-29 23:35:00,60.2,57.0,29.36,South,181,17.0,-999.0,89,-99.99,,,0.44,0,weatherlink.com 1.10,2013-01-30 04:35:00,
2013-01-29 23:50:00,60.4,57.0,29.34,South,172,21.0,-999.0,89,-99.99,,,0.44,0,weatherlink.com 1.10,2013-01-30 04:50:00,